Regional Weather Roundup
Issued by NWS Kansas City/Pleasant Hill, MO

Home | Current Version | Previous Version | Text Only | Print | Product List | Glossary On
Versions: 1 2 3 4 5 6 7 8 9 10 11 12 13 14 15 16 17 18 19 20 21 22 23 24 25 26 27
000
ASUS43 KEAX 011210
RWREAX

WEATHER ROUNDUP FOR EASTERN KANSAS AND NORTHWEST MISSOURI
NATIONAL WEATHER SERVICE KANSAS CITY/PLEASANT HILL MO
700 AM CDT SUN MAY 01 2016

KSZ040-057-103>105-MOZ028-029-037-043-011300-
...KANSAS CITY METROPOLITAN AREA...

CITY           SKY/WX    TMP DP  RH WIND       PRES   REMARKS
K.C. INTL      CLOUDY    51  47  86 W3        29.91R
6HR MIN TEMP:  50; 6HR MAX TEMP:  54;

K.C. DOWNTOWN  MOCLDY    53  47  79 SW6       29.91R
6HR MIN TEMP:  53; 6HR MAX TEMP:  58;

LEES SUMMIT    MOCLDY    50  46  86 W5        29.92R
6HR MIN TEMP:  50; 6HR MAX TEMP:  56;

OLATHE - IXD   PTCLDY    47  44  90 W6        29.93R
6HR MIN TEMP:  46; 6HR MAX TEMP:  54;

OLATHE - OJC   PTCLDY    47  44  90 W5        29.92R
6HR MIN TEMP:  47; 6HR MAX TEMP:  54;

LAWRENCE       CLOUDY    46  44  93 W7        29.93R

$$

MOZ001>008-011>017-020>025-030>033-038>040-044>046-053-054-011300-
...NORTHERN AND CENTRAL MISSOURI...

CITY           SKY/WX    TMP DP  RH WIND       PRES   REMARKS
ST. JOSEPH     CLOUDY    52  49  89 W7        29.90R
6HR MIN TEMP:  52; 6HR MAX TEMP:  56;

MOSBY          CLOUDY    52  46  82 CALM      29.90S
WARRENSBURG    MOCLDY    50  46  87 SW5       29.91R
WHITEMAN AFB   CLEAR     50  50 100 W8        29.90R
6HR MIN TEMP:  48; 6HR MAX TEMP:  54;

CLINTON        PTCLDY    50  48  93 W7        29.92R
SEDALIA        CLEAR     50  48  93 SW6       29.91R
6HR MIN TEMP:  49; 6HR MAX TEMP:  58;

WARSAW         NOT AVBL
CHILLICOTHE      N/A     52  51  97 NE7       29.92R
6HR MIN TEMP:  52; 6HR MAX TEMP:  57;

KIRKSVILLE     FOG       48  46  93 NE10      29.93R VSB 3/4
6HR MIN TEMP:  48; 6HR MAX TEMP:  53;


$$

MOZ041-047>049-056>058-063>065-088>090-097-011300-
...EASTERN AND SOUTHERN MISSOURI...

CITY           SKY/WX    TMP DP  RH WIND       PRES   REMARKS
ST. LOUIS INTL PTCLDY    60  56  86 CALM      29.87S FOG
6HR MIN TEMP:  57; 6HR MAX TEMP:  62;

SPIRIT OF STL  MOCLDY    56  56 100 CALM      29.88R FOG
COLUMBIA       FOG       54  54 100 NW5       29.90R VSB<1/4
JEFFERSON CITY MOCLDY    56  52  86 NW6       29.90R
ROLLA          PTCLDY    53  50  89 W6        29.89R
OSAGE BEACH    CLEAR     52  43  71 SW3       29.92R
SPRINGFIELD    CLEAR     46  42  86 CALM      29.93R
BRANSON        CLEAR     50  48  93 CALM      29.95R
JOPLIN         PTCLDY    45  44  97 SW3       29.96R
WEST PLAINS    CLEAR     54  51  90 NW5       29.93R

$$

IAZ060-094-KSZ022-034>040-054-083-096-NEZ052-066-093-011300-
...KANSAS...SOUTHEAST NEBRASKA AND IOWA...

CITY           SKY/WX    TMP DP  RH WIND       PRES   REMARKS
TOPEKA         CLOUDY    49  44  83 W6        29.93R
6HR MIN TEMP:  45; 6HR MAX TEMP:  54;

MANHATTAN      CLOUDY    48  42  80 SW9       29.96R
EMPORIA        PTCLDY    44  41  89 W8        29.95R
CHANUTE        CLEAR     46  42  86 W7        29.96R
WICHITA        CLOUDY    45  41  86 W9        30.01R
OMAHA          LGT RAIN  45  43  93 NE8       29.98R
LINCOLN        LGT RAIN  45  43  93 N10       29.98R
FALLS CITY     CLOUDY    50  48  93 W7        29.91R
LAMONI         FOG       45  45 100 NE12      29.92R VSB 1/4
DES MOINES     CLOUDY    46  42  86 NE10      29.97R

$$





USA.gov is the U.S. government's official web portal to all federal, state and local government web resources and services.